Weather History for Sidney, NE

Change the Weather History Date:

Tuesday, May 13, 2014

  Actual Average Record
Temperature  
Mean Temperature 43 °F 57 °F  
Max Temperature 55 °F 71 °F 91 °F (2013)
Min Temperature 30 °F 43 °F 25 °F (1966)
Degree Days  
Heating Degree Days 22 9  
Month to date heating degree days 187 136  
Since 1 July heating degree days 6495 6048  
Cooling Degree Days 0 1  
Month to date cooling degree days 0 4  
Year to date cooling degree days 0 5  
Moisture  
Dew Point 29 °F    
Average Humidity 64    
Maximum Humidity 82    
Minimum Humidity 38    
Precipitation  
Precipitation T in 0.09 in 1.51 in (1961)
Month to date precipitation 1.82 1.28  
Year to date precipitation 3.82 4.95  
Sea Level Pressure  
Sea Level Pressure 30.40 in    
Wind  
Wind Speed 14 mph (NW)    
Max Wind Speed 31 mph    
Max Gust Speed 36 mph    
Visibility 10 miles    
Events      
T = Trace of Precipitation, MM = Missing Value Source: NWS Daily Summary

Daily Weather History Graph

Daily Weather History Graph

Search for Another Location

Airport:

Trip Planner

Search our weather history database for the weather conditions in past years. The results will help you decide how hot, cold, wet, or windy it might be!

Date:

Astronomy

May. 13, 2014 Rise Set
Actual Time 5:35 AM MDT 8:01 PM MDT
Civil Twilight 5:04 AM MDT 8:32 PM MDT
Nautical Twilight 4:26 AM MDT 9:11 PM MDT
Astronomical Twilight 3:43 AM MDT 9:54 PM MDT
Moon 7:04 PM MDT (5/13) 4:54 AM MDT (5/13)
Length of Visible Light 15h 27m
Length of Day
14h 25m
Waxing Gibbous, 99% of the Moon is Illuminated
May 13
Waxing Gibbous
May 14
Full
May 21
Last Quarter
May 28
New
Jun 5
First Quarter

Hourly Weather History & Observations

Time (MDT) Temp. Windchill Dew Point Humidity Pressure Visibility Wind Dir Wind Speed Gust Speed Precip Events Conditions
12:53 AM 34.0 °F 25.5 °F 28.0 °F 79% 30.38 in 10.0 mi WNW 11.5 mph - N/A   Mostly Cloudy
1:53 AM 33.1 °F 24.9 °F 26.1 °F 75% 30.38 in 10.0 mi NW 10.4 mph - N/A   Clear
2:53 AM 32.0 °F 22.5 °F 25.0 °F 75% 30.37 in 10.0 mi WNW 12.7 mph - N/A   Clear
3:53 AM 30.9 °F 22.2 °F 25.0 °F 79% 30.39 in 10.0 mi WNW 10.4 mph - N/A   Clear
4:53 AM 30.0 °F 21.7 °F 25.0 °F 82% 30.39 in 10.0 mi WNW 9.2 mph - N/A   Clear
5:53 AM 30.0 °F 21.1 °F 25.0 °F 82% 30.40 in 10.0 mi WNW 10.4 mph - N/A   Clear
7:53 AM 39.9 °F 31.1 °F 27.0 °F 60% 30.40 in 10.0 mi NW 17.3 mph - N/A   Clear
8:53 AM 45.0 °F 36.2 °F 28.0 °F 52% 30.41 in 10.0 mi NW 24.2 mph - N/A   Clear
10:53 AM 51.1 °F - 30.0 °F 44% 30.40 in 10.0 mi NNW 21.9 mph 29.9 mph N/A   Clear
11:53 AM 51.1 °F - 27.0 °F 39% 30.40 in 10.0 mi NNW 17.3 mph 27.6 mph N/A   Scattered Clouds
12:53 PM 50.0 °F - 26.1 °F 39% 30.40 in 10.0 mi NNW 13.8 mph 31.1 mph N/A   Mostly Cloudy
1:53 PM 54.0 °F - 28.9 °F 38% 30.38 in 10.0 mi North 11.5 mph - N/A   Mostly Cloudy
2:53 PM 53.1 °F - 30.0 °F 41% 30.38 in 10.0 mi NNW 10.4 mph - 0.00 in   Mostly Cloudy
3:53 PM 48.9 °F - 32.0 °F 52% 30.39 in 10.0 mi North 13.8 mph - N/A   Overcast
4:53 PM 51.1 °F - 33.1 °F 50% 30.39 in 10.0 mi NW 21.9 mph 35.7 mph N/A   Partly Cloudy
5:53 PM 46.9 °F - 34.0 °F 61% 30.41 in 10.0 mi NW 27.6 mph 35.7 mph N/A   Clear
6:53 PM 46.9 °F - 33.1 °F 59% 30.39 in 10.0 mi NW 12.7 mph - N/A   Partly Cloudy
7:53 PM 43.0 °F 38.2 °F 34.0 °F 71% 30.40 in 10.0 mi West 8.1 mph - N/A   Clear
8:53 PM 39.9 °F 34.5 °F 33.1 °F 77% 30.40 in 10.0 mi West 8.1 mph - N/A   Clear
9:53 PM 36.0 °F 29.0 °F 30.9 °F 82% 30.42 in 10.0 mi WNW 9.2 mph - N/A   Clear
10:53 PM 36.0 °F 28.5 °F 30.9 °F 82% 30.41 in 10.0 mi WNW 10.4 mph - N/A   Clear
11:53 PM 36.0 °F 28.5 °F 30.9 °F 82% 30.41 in 10.0 mi WNW 10.4 mph - N/A   Clear